Regional Weather Roundup
Issued by NWS Jackson, KY

Home | Current Version | Previous Version | Graphics & Text | Print | Product List | Glossary On
Versions: 1 2 3 4 5 6 7 8 9 10 11 12 13 14 15 16 17 18 19 20 21 22 23 24 25 26 27 28 29 30 31 32 33 34 35 36 37 38 39 40 41 42 43 44 45 46 47 48
000
ASUS43 KJKL 272210
RWRJKL

EAST KENTUCKY HOURLY WEATHER ROUNDUP
NATIONAL WEATHER SERVICE JACKSON KY
600 PM EDT MON APR 27 2015

NOTE: "FAIR" INDICATES FEW OR NO CLOUDS BELOW 12,000 FEET WITH
NO SIGNIFICANT WEATHER AND/OR OBSTRUCTIONS TO VISIBILITY.

* THESE REPORTS ARE NOT UNDER NWS QUALITY CONTROL AND MAY NOT
  REPORT WEATHER SUCH AS PRECIPITATION AND FOG.

KYZ079-080-083-085-087-088-110-112-115-119-120-272300
...EASTERN KENTUCKY...

CITY           SKY/WX    TMP DP  RH WIND       PRES   REMARKS
JACKSON        CLOUDY    58  33  39 VRB5      29.95R
LONDON         MOSUNNY   63  31  30 NE10G20   29.94F
SOMERSET*      MOSUNNY   59  34  38 N8        29.97S
MONTICELLO*    PTSUNNY   65  38  36 NE8       29.97F
MIDDLESBORO*   SUNNY     63  33  33 N8        29.93S
HARLAN APT*    PTCLDY    61  28  29 NW6       29.93S
HAZARD APT*    MOCLDY    59  32  36 N6        29.94S
BLACK MTN*       N/A     48  30  49 NE6         N/A
PIKEVILLE APT* PTSUNNY   57  34  41 NW6       29.93S
BIG SANDY*     CLOUDY    59  33  37 N5        29.93S
MOREHEAD APT*  CLOUDY    61  34  36 VRB7G13   29.97R
$$

KYZ035-036-041-042-044-050-067-078-099-272300
...CENTRAL KENTUCKY...

CITY           SKY/WX    TMP DP  RH WIND       PRES   REMARKS
MT STERLING*   CLOUDY    61  37  41 N6        29.97S
FLEMING/MASON* CLOUDY    59  36  41 N9        29.97R
DANVILLE*      MOSUNNY   63  37  39 N8        29.97F
RICHMOND*      CLOUDY    59  34  38 NW3       29.96S
LEXINGTON      CLOUDY    60  38  43 W9        29.96R
FRANKFORT      CLOUDY    62  34  35 N8        29.95S
$$

KYZ091>093-OHZ055-061-077-WVZ005-015-034-035-042-272300
...SOUTHERN OHIO/WEST VIRGINIA...

CITY           SKY/WX    TMP DP  RH WIND       PRES   REMARKS
COVINGTON      CLOUDY    58  38  47 N13G21    29.98R
COLUMBUS       CLOUDY    48  37  65 N10       30.01R
DAYTON         CLOUDY    53  37  54 NE18      30.02R
WILMINGTON     CLOUDY    54  35  48 N14G23    29.99R
HUNTINGTON     PTSUNNY   59  34  39 NW7       29.93R
CHARLESTON     PTSUNNY   57  31  37 NW10      29.93R
PINEVILLE*     CLOUDY    56  33  42 MISG      29.98R
BECKLEY        CLOUDY    50  29  44 NW15      29.92S
BLUEFIELD      PTSUNNY   52  27  38 NW16G22   29.92S
$$

VAZ002-007-008-TNZ017-027-036-066-071-272300
...SOUTHWEST VIRGINIA/EAST TENNESSEE...

CITY           SKY/WX    TMP DP  RH WIND       PRES   REMARKS
WISE*          PTSUNNY   55  28  35 N8G17     29.94F
JONESVILLE*    PTCLDY    63  32  31 N3        29.94S
ABINGDON*      MOSUNNY   58  28  31 N8G17     29.92S
BRISTOL        MOSUNNY   63  31  30 NW13      29.90S
KNOXVILLE      PTSUNNY   65  33  30 N10       29.90S
OAK RIDGE      MOSUNNY   68  34  28 VRB3      29.92S
CROSSVILLE     SUNNY     62  34  35 N7G18     29.93S
NASHVILLE      MOSUNNY   68  40  35 N9        29.95S
$$

...KEY TO REMARKS...
VSB - VISIBILITY IN MILES
WCI - WIND CHILL INDEX
HX  - HEAT INDEX

$$


USA.gov is the U.S. government's official web portal to all federal, state and local government web resources and services.